Terug naar catalogus

COSMOS 1275 DEB

ActiefPO
NORAD 13796·DEBRIS·🇷🇺 Russia

Gelanceerd Jun 4, 1981 vanaf Plesetsk Cosmodrome

Loading…

Volgende Passages (komende 24 uur)

TLE

VersSource: Space-Track

Epoch: Sep 14, 2026, 05:38 UTC

1 13796U 81053GQ  26257.23484032  .00000925  00000-0  78071-3 0  9993
2 13796  83.0200  76.0520 0109651 230.5508 256.4808 13.84101102195139

Volg COSMOS 1275 DEB in realtime met AllMySat

Download on the App Store